Weather History for KJYO - October, 2012

Change the Weather History Date:

Saturday, October 6, 2012

  Actual Average (KIAD) Record (KIAD)
Temperature  
Mean Temperature 64 °F 60 °F  
Max Temperature 77 °F 72 °F 89 °F (2013)
Min Temperature 50 °F 48 °F 28 °F (1968)
Degree Days  
Heating Degree Days 1 6  
Month to date heating degree days 23  
Since 1 July heating degree days 81  
Cooling Degree Days 0 1  
Month to date cooling degree days 6  
Year to date cooling degree days 1163  
Growing Degree Days 14 (Base 50)    
Moisture  
Dew Point 54 °F    
Average Humidity 79    
Maximum Humidity 100    
Minimum Humidity 56    
Precipitation  
Precipitation 0.00 in 0.11 in 1.05 in (2006)
Month to date precipitation 0.42  
Year to date precipitation 32.34  
Snow  
Snow 0.00 in 0.00 in - ()
Month to date snowfall 0.0  
Since 1 July snowfall 0.0  
Snow Depth -    
Sea Level Pressure  
Sea Level Pressure 29.94 in    
Wind  
Wind Speed 6 mph (West)    
Max Wind Speed 25 mph    
Max Gust Speed 37 mph    
Visibility 10 miles    
Events      
T = Trace of Precipitation, MM = Missing Value Source: NWS Daily Summary

Daily Weather History Graph

Daily Weather History Graph

Search for Another Location

Airport or City:

Trip Planner

Search our weather history database for the weather conditions in past years. The results will help you decide how hot, cold, wet, or windy it might be!

Date:

Astronomy

Oct. 06, 2012 Rise Set
Actual Time 7:11 AM EDT 6:44 PM EDT
Civil Twilight 6:44 AM EDT 7:10 PM EDT
Nautical Twilight 6:13 AM EDT 7:41 PM EDT
Astronomical Twilight 5:42 AM EDT 8:12 PM EDT
Moon 11:00 PM EDT (10/6) 1:02 PM EDT (10/6)
Length of Visible Light 12h 26m
Length of Day
11h 32m
Waning Gibbous, 65% of the Moon is Illuminated
Oct 6
Waning Gibbous
Oct 8
Last Quarter
Oct 15
New
Oct 21
First Quarter
Oct 29
Full

Hourly Weather History & Observations

Time (EDT) Temp. Dew Point Humidity Pressure Visibility Wind Dir Wind Speed Gust Speed Precip Events Conditions
12:15 AM 62.6 °F 59.0 °F 88% 29.96 in 10.0 mi SW 3.5 mph - N/A   Clear
12:35 AM 62.6 °F 59.0 °F 88% 29.95 in 10.0 mi SSW 4.6 mph - N/A   Clear
12:55 AM 60.8 °F 59.0 °F 94% 29.95 in 10.0 mi SSW 4.6 mph - N/A   Clear
1:15 AM 60.8 °F 59.0 °F 94% 29.94 in 10.0 mi South 4.6 mph - N/A   Clear
1:35 AM 60.8 °F 59.0 °F 94% 29.93 in 10.0 mi South 4.6 mph - N/A   Clear
1:55 AM 59.0 °F 59.0 °F 100% 29.93 in 10.0 mi SSW 4.6 mph - N/A   Clear
2:15 AM 59.0 °F 59.0 °F 100% 29.92 in 10.0 mi Calm Calm - N/A   Clear
2:55 AM 57.2 °F 57.2 °F 100% 29.91 in 7.0 mi Calm Calm - N/A   Clear
3:15 AM 59.0 °F 59.0 °F 100% 29.90 in 10.0 mi Calm Calm - N/A   Clear
3:35 AM 57.2 °F 57.2 °F 100% 29.90 in 10.0 mi SSW 3.5 mph - N/A   Clear
3:55 AM 59.0 °F 59.0 °F 100% 29.89 in 10.0 mi South 4.6 mph - N/A   Clear
4:15 AM 57.2 °F 57.2 °F 100% 29.90 in 10.0 mi SW 4.6 mph - N/A   Clear
4:35 AM 57.2 °F 57.2 °F 100% 29.89 in 10.0 mi WSW 3.5 mph - N/A   Clear
4:55 AM 57.2 °F 57.2 °F 100% 29.89 in 10.0 mi SSW 4.6 mph - N/A   Clear
5:15 AM 57.2 °F 57.2 °F 100% 29.89 in 10.0 mi South 4.6 mph - N/A   Scattered Clouds
5:35 AM 57.2 °F 57.2 °F 100% 29.88 in 10.0 mi Calm Calm - N/A   Scattered Clouds
5:55 AM 57.2 °F 57.2 °F 100% 29.88 in 10.0 mi Calm Calm - N/A   Clear
6:15 AM 57.2 °F 57.2 °F 100% 29.88 in 10.0 mi SSW 4.6 mph - N/A   Clear
6:35 AM 57.2 °F 57.2 °F 100% 29.88 in 10.0 mi SSW 4.6 mph - N/A   Clear
6:55 AM 57.2 °F 57.2 °F 100% 29.87 in 10.0 mi South 6.9 mph - N/A   Clear
7:15 AM 55.4 °F 55.4 °F 100% 29.87 in 10.0 mi SSW 4.6 mph - N/A   Clear
7:55 AM 59.0 °F 59.0 °F 100% 29.86 in 10.0 mi South 4.6 mph - N/A   Clear
8:15 AM 59.0 °F 59.0 °F 100% 29.87 in 10.0 mi Calm Calm - N/A   Clear
8:35 AM 60.8 °F 59.0 °F 94% 29.87 in 10.0 mi SSW 3.5 mph - N/A   Clear
8:55 AM 62.6 °F 60.8 °F 94% 29.87 in 10.0 mi SW 3.5 mph - N/A   Clear
9:15 AM 64.4 °F 60.8 °F 88% 29.87 in 10.0 mi SSW 4.6 mph - N/A   Clear
9:35 AM 66.2 °F 62.6 °F 88% 29.87 in 10.0 mi SW 4.6 mph - N/A   Clear
9:55 AM 69.8 °F 62.6 °F 78% 29.87 in 10.0 mi SW 4.6 mph - N/A   Scattered Clouds
10:15 AM 71.6 °F 62.6 °F 73% 29.87 in 10.0 mi SSW 4.6 mph - N/A   Scattered Clouds
10:35 AM 71.6 °F 62.6 °F 73% 29.86 in 10.0 mi South 3.5 mph - N/A   Clear
10:55 AM 73.4 °F 62.6 °F 69% 29.87 in 10.0 mi SSW 4.6 mph - N/A   Clear
11:15 AM 75.2 °F 62.6 °F 65% 29.86 in 10.0 mi SSW 5.8 mph - N/A   Clear
11:35 AM 77.0 °F 62.6 °F 61% 29.87 in 10.0 mi West 10.4 mph - N/A   Mostly Cloudy
11:55 AM 75.2 °F 62.6 °F 65% 29.87 in 10.0 mi NW 10.4 mph - N/A   Overcast
12:15 PM 71.6 °F 60.8 °F 69% 29.89 in 10.0 mi NNW 15.0 mph 19.6 mph N/A   Overcast
12:35 PM 69.8 °F 60.8 °F 73% 29.90 in 10.0 mi NW 18.4 mph 24.2 mph N/A   Overcast
12:55 PM 69.8 °F 59.0 °F 68% 29.91 in 10.0 mi NW 19.6 mph 28.8 mph N/A   Overcast
1:15 PM 69.8 °F 59.0 °F 68% 29.91 in 10.0 mi NW 15.0 mph 23.0 mph N/A   Overcast
1:35 PM 68.0 °F 55.4 °F 64% 29.92 in 10.0 mi NW 17.3 mph 24.2 mph N/A   Overcast
1:55 PM 64.4 °F 53.6 °F 68% 29.93 in 10.0 mi NNW 18.4 mph 26.5 mph N/A   Overcast
2:15 PM 64.4 °F 53.6 °F 68% 29.92 in 10.0 mi NW 17.3 mph 25.3 mph N/A   Mostly Cloudy
2:35 PM 68.0 °F 51.8 °F 56% 29.93 in 10.0 mi NNW 25.3 mph 32.2 mph N/A   Clear
2:55 PM 66.2 °F 51.8 °F 60% 29.93 in 10.0 mi NW 20.7 mph 36.8 mph N/A   Clear
3:15 PM 66.2 °F 51.8 °F 60% 29.94 in 10.0 mi NW 21.9 mph 31.1 mph N/A   Clear
3:35 PM 66.2 °F 51.8 °F 60% 29.96 in 10.0 mi NNW 20.7 mph 29.9 mph N/A   Clear
3:55 PM 64.4 °F 50.0 °F 59% 29.97 in 10.0 mi NNW 13.8 mph 26.5 mph N/A   Clear
4:15 PM 64.4 °F 50.0 °F 59% 29.96 in 10.0 mi NW 20.7 mph 26.5 mph N/A   Clear
4:35 PM 62.6 °F 50.0 °F 63% 29.96 in 10.0 mi NNW 12.7 mph 19.6 mph N/A   Clear
4:55 PM 62.6 °F 50.0 °F 63% 29.97 in 10.0 mi NNW 15.0 mph 23.0 mph N/A   Clear
5:15 PM 62.6 °F 48.2 °F 59% 29.98 in 10.0 mi North 9.2 mph 17.3 mph N/A   Clear
5:35 PM 60.8 °F 48.2 °F 63% 29.98 in 10.0 mi NW 13.8 mph 19.6 mph N/A   Clear
5:55 PM 60.8 °F 48.2 °F 63% 29.98 in 10.0 mi NW 12.7 mph - N/A   Clear
6:15 PM 59.0 °F 48.2 °F 67% 29.99 in 10.0 mi NW 11.5 mph - N/A   Clear
6:35 PM 59.0 °F 46.4 °F 63% 30.00 in 10.0 mi NW 8.1 mph - N/A   Clear
7:15 PM 55.4 °F 46.4 °F 72% 30.01 in 10.0 mi Calm Calm - N/A   Clear
7:35 PM 55.4 °F 46.4 °F 72% 30.02 in 10.0 mi NNW 4.6 mph - N/A   Clear
7:55 PM 55.4 °F 46.4 °F 72% 30.02 in 10.0 mi NNW 9.2 mph - N/A   Clear
8:15 PM 55.4 °F 44.6 °F 67% 30.03 in 10.0 mi Calm Calm - N/A   Clear
8:35 PM 55.4 °F 44.6 °F 67% 30.04 in 10.0 mi NW 4.6 mph - N/A   Clear
8:55 PM 55.4 °F 44.6 °F 67% 30.04 in 10.0 mi NW 6.9 mph - N/A   Clear
9:15 PM 55.4 °F 44.6 °F 67% 30.04 in 10.0 mi NNW 6.9 mph - N/A   Clear
9:35 PM 53.6 °F 44.6 °F 72% 30.06 in 10.0 mi NW 5.8 mph - N/A   Clear
9:55 PM 55.4 °F 44.6 °F 67% 30.06 in 10.0 mi NNW 8.1 mph - N/A   Clear
10:15 PM 53.6 °F 44.6 °F 72% 30.06 in 10.0 mi NNW 6.9 mph - N/A   Clear
10:35 PM 53.6 °F 44.6 °F 72% 30.06 in 10.0 mi NNW 11.5 mph - N/A   Clear
10:55 PM 53.6 °F 42.8 °F 67% 30.07 in 10.0 mi NNW 5.8 mph - N/A   Clear
11:15 PM 51.8 °F 42.8 °F 71% 30.06 in 10.0 mi North 5.8 mph - N/A   Clear
11:35 PM 51.8 °F 42.8 °F 71% 30.06 in 10.0 mi North 5.8 mph - N/A   Clear
11:55 PM 50.0 °F 42.8 °F 76% 30.07 in 10.0 mi Calm Calm - N/A   Clear